Regional Weather Roundup
Issued by NWS

Home | Current Version | Previous Version | Graphics & Text | Print | Product List | Glossary On
Versions: 1 2 3 4 5 6 7 8 9 10 11 12 13 14 15 16 17 18 19 20 21 22 23 24 25 26 27 28 29 30 31 32 33 34 35 36 37 38 39 40 41 42 43 44 45 46 47 48 49 50
000
ASUS43 KOAX 180810
RWRNE

WEATHER ROUNDUP FOR NEBRASKA
NATIONAL WEATHER SERVICE OMAHA NE
300 AM CDT SAT APR 18 2015

NOTES: SATELLITE DATA IS BEING USED TO AUGMENT CLOUD COVER ABOVE
       12000 FEET.
       "FAIR" INDICATES FEW OR NO CLOUDS BELOW 12,000 FEET WITH NO
       SIGNIFICANT WEATHER AND/OR OBSTRUCTIONS TO VISIBILITY.

  * THESE STATIONS DO NOT REPORT WEATHER SUCH AS RAIN...SNOW OR FOG.

NEZ001>004-019>022-054>056-180900-
NEBRASKA PANHANDLE

CITY           SKY/WX    TMP DP  RH WIND       PRES   REMARKS
SCOTTSBLUFF    RAIN      42  42 100 W10       30.01F FOG
ALLIANCE       RAIN      46  45  96 E9        30.00F FOG
CHADRON        LGT RAIN  47  46  97 NE6       30.03F FOG
KIMBALL        LGT RAIN  40  38  95 N7        30.00F WCI  35
SIDNEY         LGT RAIN  42  40  92 NW12      30.00F
$$

NEZ057>060-069>072-079>082-180900-
SOUTHWEST NEBRASKA

CITY           SKY/WX    TMP DP  RH WIND       PRES   REMARKS
NORTH PLATTE   LGT RAIN  51  49  92 E5        29.96F
IMPERIAL       LGT RAIN  51  43  74 NE15      29.94F
LEXINGTON      RAIN      55  53  92 S10       29.97S
MCCOOK         RAIN      52  49  89 W9        29.97S FOG
OGALLALA       DRIZZLE   49  48  98 N6        29.96F
$$

NEZ005>010-023>029-035>040-094-180900-
NORTH CENTRAL NEBRASKA

CITY           SKY/WX    TMP DP  RH WIND       PRES   REMARKS
VALENTINE      CLOUDY    51  48  89 NE5       30.01F
AINSWORTH      CLOUDY    52  51  97 N6        29.99F
BROKEN BOW     CLOUDY    56  51  84 NE12      29.94F
O`NEILL        CLOUDY    55  50  82 N5        30.00F
ORD            CLOUDY    56  50  80 E3        29.95F
THEDFORD       LGT RAIN  52  51  95 E7        29.98S
$$

NEZ041-046>049-061>064-073>077-083>087-180900-
SOUTH CENTRAL NEBRASKA

CITY           SKY/WX    TMP DP  RH WIND       PRES   REMARKS
GRAND ISLAND   CLOUDY    55  52  89 E6        29.95F
AURORA         CLOUDY    56  55  95 E7        29.95F
HASTINGS       CLOUDY    58  54  86 SE12      29.93F
HEBRON         CLOUDY    57  54  90 SE3       29.94F
HOLDREGE       TSTM      56  55  94 SW6       29.93F
KEARNEY *      CLOUDY    55  52  88 E8        29.92F
YORK           CLOUDY    57  55  94 E6        29.96F
$$

NEZ011>018-030>034-042>045-180900-
NORTHEAST NEBRASKA

CITY           SKY/WX    TMP DP  RH WIND       PRES   REMARKS
ALBION         LGT RAIN  58  49  72 E8        29.97F
BLAIR          CLOUDY    62  53  71 NE7       29.97S
COLUMBUS *     CLOUDY    59  48  67 E6        29.98F
FREMONT        CLOUDY    62  56  80 N3        29.97F
TEKAMAH        CLOUDY    61  49  64 CALM      29.97F
WAYNE          CLOUDY    58  53  81 NE8       29.99S
$$

NEZ050>053-065>068-078-088>093-180900-
SOUTHEAST NEBRASKA

CITY           SKY/WX    TMP DP  RH WIND       PRES   REMARKS
LINCOLN        CLOUDY    61  54  77 E5        29.96F
OMAHA EPPLEY   CLOUDY    65  54  67 NE3       29.96F
BEATRICE       CLOUDY    60  55  84 CALM      29.96F
FALLS CITY     CLOUDY    60  55  83 SE3       29.95S
NEBRASKA CITY  CLOUDY    60  53  78 S6        29.96S
PLATTSMOUTH    CLOUDY    61  54  76 SE6       29.96F
$$

NEZ044-045-051>053-067-180900-
OMAHA AREA

CITY           SKY/WX    TMP DP  RH WIND       PRES   REMARKS
OMAHA EPPLEY   CLOUDY    65  54  67 NE3       29.96F
BLAIR          CLOUDY    62  53  71 NE7       29.97S
FREMONT        CLOUDY    62  56  80 N3        29.97F
MILLARD        CLOUDY    65  56  73 CALM      29.96S
OFFUTT AFB     CLOUDY    60  56  88 E2        29.95F
PLATTSMOUTH    CLOUDY    61  54  76 SE6       29.96F
WAHOO          CLOUDY    61  55  78 E3        29.96S
$$



USA.gov is the U.S. government's official web portal to all federal, state and local government web resources and services.